sat.trackr.live / text

‹ back to catalog

STARLINK-1545

NORAD 46156 · 2020-057AR

PAYLOAD ACTIVE UNKNOWN

§ Identity

Operator
Country
US
Launch date
2020-08-18
Launch site
AFETR
Launch vehicle
Mass (kg)
RCS (m²)

Purposes: comms

External: N2YO · Heavens-Above · Gunter

§ Orbital elements

Epoch: 2026-07-12T21:34:35.840352Z

Period
87.63 min
Inclination
53.0194°
Eccentricity
0.0010701
Mean motion
16.43205886 rev/d
Perigee alt
150.3 km
Apogee alt
164.3 km
Semi-major
6,535.4 km
B*
3.7208e-4
RAAN
350.4530°
Arg perigee
290.7741°
Mean anomaly
69.2160°
Rev number
32,792

§ Raw data

STARLINK-15451 46156U 20057AR  26193.89902593  .09897584  12515-4  37208-3 0  99932 46156  53.0194 350.4530 0010701 290.7741  69.2160 16.43205886327925

JSON: /api/v1/satellites/46156 · /tle

For live sub-satellite position, see the globe view (requires WebGL).

§ Visibility from observer

Set your observer location to see the next 7 days of passes ≥ 10°. The values pass through the URL so the page stays shareable.

No JS? Fill the form by hand. The geolocation button needs JavaScript.